SCP
1 1 1 1 1 2 2 2 2 2 2 2 2 1 1 1 1 1 1 1 1 1 1 1 1 1 1 1 1 1 0 0 0 0 0 0 0 0 0 0 0 0 0
1 1 1 1 1 2 2 2 3 2 2 2 2 2 1 1 1 1 1 1 1 1 1 1 1 1 1 1 1 1 0 0 0 0 0 0 0 0 0 0 0 0 0
0 1 1 1 1 2 2 3 3 3 3 3 3 2 2 2 2 1 1 1 1 1 1 1 1 1 1 1 1 1 0 0 0 0 0 0 0 0 0 0 0 0 0
0 0 1 1 2 2 2 2 2 3 3 3 4 3 3 3 2 2 2 1 1 1 1 1 1 1 1 1 1 1 0 0 0 0 0 0 0 0 0 0 0 0 0
0 0 1 1 2 2 2 1 1 2 3 3 4 4 4 3 3 2 1 1 1 1 1 1 1 1 1 1 1 1 0 0 0 0 0 0 0 0 0 0 0 0 0
0 0 0 1 1 2 1 1 1 1 2 3 3 4 3 3 3 2 1 1 1 1 1 1 1 1 1 1 1 1 0 0 0 0 0 0 0 0 0 0 0 0 0
0 0 0 0 1 1 1 1 1 1 1 2 2 3 3 2 2 1 1 1 1 1 1 1 1 1 1 1 1 1 1 0 0 0 0 0 0 0 0 0 0 0 0
0 0 0 0 0 1 1 1 1 1 1 1 1 2 2 2 1 1 1 1 1 1 1 1 1 1 1 1 1 1 1 1 0 0 0 0 0 0 0 0 0 0 0
-0 0 0 0 0 0 1 1 1 1 2 2 2 1 1 1 1 1 1 1 1 1 1 1 1 0 0 1 1 1 1 1 0 0 0 0 0 0 0 0 0 0 0
0 0 0 0 0 0 0 0 1 1 1 1 2 2 1 1 1 1 1 1 1 1 1 1 1 1 0 0 0 0 0 0 0 0 0 0 0 0 0 0 0 0 0
0 0 0 0 0 0 0 0 0 0 0 1 1 2 2 1 1 1 1 1 1 1 1 1 1 1 1 1 1 0 0 0 0 0 0 0 0 0 0 0 0 0 0
0 0 0 0 0 0 0 0 0 0 0 0 1 1 1 1 1 1 1 1 1 1 1 1 1 1 1 1 1 1 1 0 0 0 0 0 0 0 0 0 0 0 0
0 0 0 0 0 0 0 0 0 0 0 0 0 0 0 0 0 0 0 0 1 1 1 1 1 1 1 1 1 1 1 0 0 0 0 0 0 0 0 0 0 0 0
0 0 0 0 0 0 0 0 0 0 0 0 0 0 0 0 0 0 0 0 0 0 0 0 0 0 1 1 1 1 0 0 0 0 0 0 0 0 0 0 0 0 0
0 0 0 0 0 0 0 0 0 0 0 0 0 0 0 0 0 0 0 0 0 0 0 0 0 0 0 0 0 0 0 0 0 0 0 0 0 0 0 0 0 0 0
0 0 0 0 0 0 0 0 0 0 0 0 0 0 0 0 0 0 0 0 0 0 0 0 0 0 0 0 0 0 0 0 0 0 0 0 0 0 0 0 0 0 0
0 0 0 0 0 0 0 0 0 0 0 0 0 0 0 0 0 0 0 0 0 0 0 0 0 0 0 0 0 0 0 0 0 0 0 0 0 0 0 0 0 0 0
0 0 0 0 0 0 0 0 0 0 0 0 0 0 0 0 0 0 0 0 0 0 0 0 0 0 0 0 0 0 0 0 0 0 0 0 0 0 0 0 0 0 0
0 0 0 0 0 0 0 0 0 0 0 0 0 0 0 0 0 0 0 0 0 0 0 0 0 0 0 0 0 0 0 0 0 0 0 0 0 0 0 0 0 0 0
0 0 0 0 0 0 0 0 0 0 0 0 0 0 0 0 0 0 0 0 0 0 0 0 0 0 0 0 0 0 0 0 0 0 0 0 0 0 0 0 0 0 0
0 0 0 0 0 0 0 0 0 0 0 0 0 0 0 0 0 0 0 0 0 0 0 0 0 0 0 0 0 0 0 0 0 0 0 0 0 0 0 0 0 0 0
0 0 0 0 0 0 0 0 0 0 0 0 0 0 0 0 0 0 0 0 0 0 0 0 0 0 0 0 0 0 0 0 0 0 0 0 0 0 0 0 0 0 0
0 0 0 0 0 0 0 0 0 0 0 0 0 0 0 0 0 0 0 0 0 0 0 0 0 0 0 0 0 0 0 0 0 0 0 0 0 0 0 0 0 0 0
0 0 0 0 0 0 0 0 0 0 0 0 0 0 0 0 0 0 0 0 0 0 0 0 0 0 0 0 0 0 0 0 0 0 0 0 0 0 0 0 0 0 0
0 0 0 0 0 0 0 0 0 0 0 0 0 0 0 0 0 0 0 0 0 0 0 0 0 0 0 0 0 0 0 0 0 0 0 0 0 0 0 0 0 0 0
0 0 0 0 0 0 0 0 0 0 0 0 0 0 0 0 0 0 0 0 0 0 0 0 0 0 0 0 0 0 0 0 0 0 0 0 0 0 0 0 0 0 0
Wind_Speed
1 2 3 3 3 3 2 1 2 2 2 3 3 4 4 3 3 4 4 5 5 5 5 3 4 3 4 4 4 4 4 3 2 2 4 5 7 7 6 5 5 5 4
3 4 4 4 4 3 2 1 1 1 1 2 2 2 2 3 3 3 4 5 6 6 5 5 4 4 4 5 5 4 3 3 3 3 2 3 3 4 5 4 4 4 3
2 3 4 4 4 4 3 2 1 0 0 1 1 1 1 1 2 2 2 3 5 5 5 6 5 5 5 5 5 5 6 4 4 4 3 3 3 2 3 4 4 3 3
3 3 3 3 3 3 3 3 3 3 2 1 0 1 1 2 3 2 2 2 3 4 5 5 6 6 5 5 5 5 5 5 5 4 4 4 2 2 3 2 3 4 4
4 4 4 3 3 4 3 3 3 4 4 3 1 0 1 2 1 1 2 2 2 1 2 3 3 4 4 5 5 5 5 5 6 4 3 4 4 5 4 5 3 2 3
5 5 5 4 4 4 4 3 2 3 4 4 3 2 1 1 1 2 2 2 2 1 2 2 3 4 4 4 5 5 6 6 6 5 4 3 3 4 5 6 5 4 3
5 6 6 6 5 5 4 4 4 4 4 4 3 3 2 2 1 1 2 2 2 2 3 3 3 3 3 4 4 4 5 6 6 6 5 5 5 3 4 5 5 5 3
5 6 5 5 5 5 5 4 5 4 4 4 3 3 3 2 2 3 2 2 2 2 3 3 3 3 3 4 3 3 4 4 5 6 6 5 4 4 4 4 4 5 4
7 7 7 6 6 6 5 5 4 4 5 4 4 4 4 3 3 3 3 3 3 3 4 4 4 3 3 4 4 3 4 4 4 4 5 4 4 3 4 3 4 5 6
7 6 6 6 6 6 6 5 5 5 5 5 4 4 3 3 3 3 4 4 4 4 4 4 3 4 4 4 3 3 3 3 3 3 4 4 4 3 3 4 4 5 6
6 6 5 5 5 5 6 6 6 6 6 6 5 4 3 3 3 3 3 3 4 4 4 4 4 4 3 3 3 3 4 3 3 3 3 4 4 4 4 3 4 4 5
5 5 5 5 6 6 6 6 6 6 6 6 5 4 4 4 4 4 4 4 4 4 4 3 3 3 3 3 3 4 4 4 4 4 4 5 3 4 4 3 4 4 4
5 5 5 5 5 5 5 5 6 6 6 6 6 5 5 5 5 4 5 5 5 5 5 4 4 4 4 3 3 3 3 4 4 4 4 5 4 5 4 4 4 4 3
4 4 4 4 4 4 4 5 5 5 5 5 6 5 5 5 5 5 5 4 4 4 5 4 4 4 4 4 4 4 4 4 4 5 4 5 4 5 4 4 4 4 4
4 4 3 3 4 4 4 4 4 4 4 5 5 5 5 5 5 5 5 5 4 4 4 4 4 4 4 4 5 5 5 5 5 5 4 4 4 5 5 4 4 4 4
4 4 3 4 4 4 4 4 4 4 4 4 4 4 5 5 5 5 5 5 4 4 4 3 4 4 4 6 7 6 4 4 4 5 5 4 4 5 5 5 5 5 5
4 4 4 4 4 4 4 4 4 4 3 3 4 4 4 4 5 6 5 5 5 4 4 4 3 4 5 7 7 7 4 4 4 4 4 4 4 4 4 5 5 5 5
5 4 3 4 4 4 4 4 4 4 4 3 4 4 4 4 4 5 5 5 5 4 4 4 4 3 4 7 7 6 4 3 3 3 3 3 4 4 5 4 4 4 4
4 3 3 3 3 4 4 3 4 4 4 4 4 5 4 5 5 5 5 5 5 5 4 4 4 4 4 6 7 7 3 3 3 3 3 3 4 5 6 4 4 4 4
2 2 2 3 3 4 4 3 4 4 5 5 5 5 4 5 5 6 6 5 5 5 5 5 4 4 5 6 7 7 3 3 3 3 3 3 4 6 5 3 3 4 4
3 3 3 3 3 4 4 4 4 5 5 5 5 5 5 5 6 6 5 5 5 5 5 5 4 4 5 6 7 7 3 3 4 3 3 3 6 7 6 4 3 5 5
3 3 3 4 4 4 4 5 5 5 5 5 6 6 6 6 5 6 6 5 5 5 6 5 5 3 3 4 6 8 6 5 4 4 3 4 7 7 6 4 4 5 4
4 3 4 5 4 3 3 5 6 5 5 6 6 7 7 6 6 5 6 5 5 4 5 4 5 4 3 4 7 8 7 7 4 4 6 6 7 6 4 4 5 3 2
4 3 4 5 6 4 4 4 5 5 5 6 7 7 6 6 6 5 4 4 4 5 5 5 5 5 4 3 3 3 4 5 5 4 4 5 5 4 4 3 3 2 1
4 4 4 5 6 6 5 5 5 5 5 6 7 7 6 6 5 5 5 6 5 6 6 5 5 5 5 6 9 6 4 4 4 3 2 2 2 2 2 2 2 2 1
5 5 5 6 6 6 6 5 5 4 5 6 6 5 5 5 5 5 6 8 9 11 12 11 10 7 9 12 11 11 10 9 7 3 2 2 2 2 2 2 2 1 1
Wind_Direction
26 54 53 60 63 57 62 98 147 178 191 202 204 204 209 209 215 215 211 211 212 213 209 218 224 224 223 222 216 219 228 231 221 261 275 261 245 238 237 233 232 229 225
23 43 50 52 54 53 47 45 78 159 199 227 222 218 210 210 216 227 219 214 213 214 212 213 218 220 227 234 228 219 222 226 204 209 258 284 280 250 234 227 226 226 219
35 45 54 52 45 40 31 23 12 55 166 266 228 243 213 223 229 243 242 233 222 217 215 216 217 220 224 230 230 227 221 226 220 207 208 232 254 297 262 229 221 218 221
23 30 44 50 48 32 30 28 18 16 22 76 118 201 230 241 247 257 255 256 236 231 226 226 223 221 222 229 230 226 231 224 227 226 224 229 228 252 289 278 234 224 227
30 27 27 40 45 34 26 23 23 20 20 28 37 189 255 272 312 332 309 284 272 260 252 246 242 240 234 234 233 228 228 229 230 223 223 237 242 234 241 266 262 250 234
31 32 23 29 39 35 24 18 29 27 20 23 22 19 344 338 0 341 327 311 299 303 316 292 261 253 246 243 243 239 234 232 236 233 221 216 224 226 231 247 255 255 243
31 27 23 20 25 28 20 15 22 26 20 19 17 20 8 359 340 310 308 324 324 331 335 325 300 285 276 261 248 248 252 244 239 238 238 233 237 236 235 241 252 257 254
31 28 22 19 22 22 21 20 21 18 16 16 6 11 16 15 1 349 338 332 328 329 336 331 329 323 307 293 268 252 249 249 248 249 247 245 245 242 238 239 247 262 259
32 28 25 22 17 17 14 17 20 18 10 10 13 19 18 19 12 3 358 351 346 345 347 340 342 342 341 330 310 271 258 252 250 253 256 257 254 249 251 249 239 245 259
27 27 24 22 21 20 15 17 24 22 12 10 11 14 20 21 15 11 6 357 347 350 349 346 342 342 342 337 334 323 306 278 262 255 257 260 260 253 248 248 250 246 251
26 22 19 19 19 21 22 23 21 19 14 11 7 9 10 18 20 14 1 353 349 347 343 342 340 338 335 331 328 324 326 311 303 297 276 271 270 263 260 255 253 250 246
25 27 23 22 23 21 21 21 19 20 15 9 11 13 9 13 17 6 358 355 352 346 339 338 337 336 333 331 331 322 318 315 310 310 299 281 281 275 268 263 260 256 251
20 26 26 23 20 17 16 16 17 16 11 11 13 16 15 13 10 3 357 356 351 347 346 346 339 333 328 328 323 313 314 310 304 301 299 300 291 275 270 266 266 267 271
15 18 18 15 11 10 10 11 11 11 9 10 10 10 9 7 3 357 353 353 351 347 344 340 335 329 329 332 330 324 319 312 306 303 301 302 302 297 297 284 279 277 273
8 7 7 4 358 359 1 3 2 3 5 8 7 2 357 357 356 351 348 346 345 340 335 337 338 342 342 345 343 330 317 310 309 312 315 314 317 317 304 294 290 280 269
354 359 4 357 349 348 351 353 351 349 353 358 352 348 347 348 347 341 340 339 337 334 334 333 333 337 339 344 345 339 325 321 318 315 314 313 317 321 310 302 298 288 275
348 349 347 342 338 337 341 342 339 339 345 343 339 340 337 336 333 330 333 329 325 326 327 324 324 325 333 341 344 344 331 322 317 316 320 325 329 321 316 315 312 302 288
337 333 330 330 332 333 333 333 333 334 331 329 330 331 329 326 326 326 323 320 318 317 313 314 314 314 326 333 333 333 326 321 321 319 318 320 324 331 329 322 319 313 307
315 315 318 318 322 323 320 327 329 329 327 325 325 323 322 320 320 318 313 311 310 308 308 308 312 308 310 320 323 325 314 317 318 321 325 324 320 325 329 325 316 311 310
314 314 317 320 322 321 323 322 317 317 313 313 313 315 315 312 309 307 306 306 304 301 304 303 303 303 303 309 317 321 311 312 312 308 306 304 311 313 323 316 307 305 311
308 311 314 315 314 319 322 312 311 307 308 313 314 314 313 308 303 302 302 301 300 300 298 296 295 296 301 305 310 316 315 308 304 302 307 304 310 309 310 310 298 294 305
307 315 313 308 313 320 314 304 304 311 318 317 313 310 308 304 304 299 299 299 297 295 293 293 293 292 296 302 304 305 304 309 299 299 303 302 310 312 314 314 310 311 315
302 304 300 302 310 315 307 297 305 319 319 312 305 303 302 299 298 293 294 295 291 288 289 290 292 293 293 293 299 300 297 298 298 295 297 304 309 313 315 313 314 321 321
297 300 300 297 300 307 309 299 306 313 307 301 299 298 297 295 293 290 286 283 282 283 284 285 286 290 291 289 294 295 295 290 290 295 293 292 299 305 307 312 319 313 303
298 300 292 289 293 304 305 306 311 311 302 298 297 297 293 292 294 289 283 283 273 269 277 275 274 280 281 279 289 293 286 283 278 298 300 296 302 304 304 313 318 317 328
292 292 289 287 291 298 298 302 306 302 295 295 295 295 294 292 291 292 295 288 286 287 282 278 277 275 278 287 288 287 287 289 288 290 271 275 279 281 285 293 306 320 331